User: anonymous   Login
Location: Unspecified
(0.0000°N, 0.0000°E)
Time: 16:46:43
(UTC+00:00)
Language:

Explorer 31 - Orbit

View from above orbital plane
View from above orbital plane
View from above satellite
View from above satellite

Ground track
Ground track

The orbit data is extracted from the following two-line orbital elements,

1  1806U 65098B   19015.88382705 +.00000598 +00000-0 +20171-3 0  9996
2  1806 079.7969 052.4802 1438355 031.7852 336.2388 12.05537350321998
Epoch (UTC): 15 January 2019 21:12:42
Eccentricity: 0.1438355
inclination: 79.7969°
perigee height: 500 km
apogee height: 2812 km
right ascension of ascending node: 52.4802°
argument of perigee: 31.7852°
revolutions per day: 12.05537350
mean anomaly at epoch: 336.2388°
orbit number at epoch: 32199

The dashed part of the orbit path shows where the satellite is in the earth's shadow,  

DLR